Regional Weather Roundup
Issued by NWS New Orleans/Baton Rouge, LA

Home | Current Version | Previous Version | Graphics & Text | Print | Product List | Glossary On
Versions: 1 2 3 4 5 6 7 8 9 10 11 12 13 14 15 16 17 18 19 20 21 22 23 24 25 26 27 28 29 30 31 32 33 34 35 36 37 38 39 40 41 42 43 44 45 46 47 48 49 50
548
ASUS44 KLIX 260810
RWRLIX
NEW ORLEANS REGIONAL WEATHER ROUNDUP
NATIONAL WEATHER SERVICE NEW ORLEANS LA
200 AM CST WED NOV 26 2014

NOTE: "FAIR" INDICATES FEW OR NO CLOUDS BELOW 12,000 FEET WITH NO
      SIGNIFICANT WEATHER AND/OR OBSTRUCTIONS TO VISIBILITY.
      SKY/WX - SKY CONDITION AND SIGNIFICANT WEATHER.
      TMP - AIR TEMPERATURE.     DP    - DEWPOINT TEMPERATURE.
      RH  - RELATIVE HUMIDITY.   PRES  - PRESSURE.
      HI  - HEAT INDEX.          WCI   - WIND CHILL INDEX.

*  THESE STATIONS ARE NOT NWS OR FAA STATIONS AND ARE NOT UNDER
   NWS QUALITY CONTROL.

LAZ038-040-048-061>063-065>067-069-260900-
SOUTHEAST LOUISIANA

CITY           SKY/WX    TMP DP  RH WIND       PRES   REMARKS
N.O. AUDUBON   NOT AVBL
N.O. INTL ARPT CLEAR     44  33  65 N3        30.21F
N.O. LAKEFRONT CLEAR     49  35  58 N13       30.22F
N.O. DOWNTOWN*   N/A     46  30  53 CALM      30.22S
SLIDELL        CLEAR     35  31  85 CALM      30.21S
BATON ROUGE    CLEAR     34  32  92 CALM      30.21F
BOOTHVILLE     CLEAR     50  33  52 N14       30.21S
BELLE CHASSE   CLEAR     39  33  79 CALM      30.21F
BOGALUSA*        N/A     33  31  92 CALM      30.22S
NEW ROADS*       N/A     34  33  98 CALM      30.21F
GONZALES*        N/A     35  35 100 CALM      30.21F
HAMMOND*       CLEAR     34  32  93 CALM      30.23S
HOUMA*         CLEAR     36  33  89 CALM      30.22F
PORT FOURCHON* SUNNY     48  36  61 N12       30.25F

$$

MSZ070-080>082-260900-
SOUTHERN MISSISSIPPI

CITY           SKY/WX    TMP DP  RH WIND       PRES   REMARKS
MCCOMB         CLEAR     30  28  92 CALM      30.20S
GULFPORT       CLEAR     39  31  72 NW5       30.20R
BILOXI         CLEAR     43  33  67 NW9       30.20R
PASCAGOULA     CLEAR     41  30  65 NW6       30.19R

$$

COASTAL OBSERVATIONS
LAKE AND NEARSHORE STATIONS

STATION/POSITION TIME  TEMP    WIND        PRES    WAVE
                       AIR SEA DIR/SP/G            HT/PER
                 (UTC) (F)     (DEG/KT/KT) (MB)    (FT/S)
PASCAGOULA       0800   45     320/  7/ 12 1021.6
WAVELAND YACHT   0800   43     320/  6/  8 1022.0
GRAND ISLE       0800   50 59  350/ 11/ 16 1023.5
SOUTHWEST PASS   0800   53                 1022.9
NEW CANAL        0800   49 54  340/  5/ 10 1023.4
SHELL BEACH      0800   49 52  340/ 12/ 14 1022.8

OFFSHORE STATIONS

STATION/POSITION TIME  TEMP    WIND        PRES    WAVE
                       AIR SEA DIR/SP/G            HT/PER
                 (UTC) (F)     (DEG/KT/KT) (MB)    (FT/S)
64 S DAUPHIN ISL 0729   57 71  330/ 21/ 27 1021.5    5/ 6

$$




USA.gov is the U.S. government's official web portal to all federal, state and local government web resources and services.